Вернуться в каталог

IRIDIUM 33 DEB

АктивенPO
NORAD 33773·DEBRIS·🇺🇸 United States

Запущен Sep 14, 1997 с Baikonur Cosmodrome

Loading…

Ближайшие Пролёты (ближайшие 24 часа)

TLE

СвежийSource: Space-Track

Эпоха: Sep 14, 2026, 09:23 UTC

1 33773U 97051L   26257.39159594  .00000529  00000-0  14976-3 0  9998
2 33773  86.3995 303.7592 0009656 331.4357  28.6314 14.43761757923245

Отслеживайте IRIDIUM 33 DEB в реальном времени с AllMySat

Download on the App Store